Content
SEND FEEDBACK

Daily
Averages
Monthly
Summary
The Bahamas

NASSAU, THE BAHAMAS


Home > Caribbean > The Bahamas
Elevation: 23 feet     Latitude: 25 03N     Longitude: 077 28W

WEATHER
 
SELECT A DAY
Number of Records: 159,225;   Date Range: 6/30/96 - 9/15/14
 
SHARE

PRINT THIS DATA

[ ← Previous Day ]
WEATHER ALMANAC - SEPTEMBER 1, 2013
[ Next Day → ]
[ °C ]   °F
Weather ElementAverageHighLow
Temperature83.3 °F89.6 °F (2:00 pm)75.2 °F (1:00 am)
Dewpoint77.1 °F79 °F (11:00 pm)71.6 °F (1:00 am)
Humidity81.5 %100 % (2:00 am)64 % (2:00 pm)
Barometer28.92 in30.04 in (10:00 pm) (7:00 pm)
Wind Speed2 mph4.6 mph (10:00 am)
Weather ElementAverage
Visibility6.7 mi
Wind DirectionENE (65.4 °)

Weather ElementTotal
Precipitation---
Cooling Degree Days17.4 (Base 65)
Growing Degree Days32.4 (Base 50)
Averaged from 28 records on September 1, 2013
WEATHER CONDITIONS BREAKOUT
WIND DIRECTION BREAKOUT
WEATHER BY HOUR - SEPTEMBER 1, 2013
[ °C ]   °F
Local TimeTemperatureDewpointHumidityBarometerVisibilityWind DirectionWind SpeedGust SpeedPrecipitationEventsConditions
1:00 AM75.2 °F71.6 °F89 %30.01 in6.2 miCalmThunderstormMostly Cloudy
2:00 AM79.0 °F78.0 °F96 %29.99 in8.0 miESE (110°)3.5 mphPartly Cloudy
2:00 AM78.8 °F78.8 °F100 %29.99 in6.2 miESE (110°)3.5 mphMostly Cloudy
4:00 AM78.8 °F77.0 °F94 %29.94 in6.2 miCalmMostly Cloudy
5:00 AM79.0 °F77.0 °F92 %29.94 in8.0 miCalmPartly Cloudy
5:00 AM78.8 °F77.0 °F94 %29.94 in6.2 miCalmMostly Cloudy
6:00 AM77.0 °F77.0 °F100 %29.97 in6.2 miCalmMostly Cloudy
7:00 AM77.0 °F77.0 °F100 %29.98 in6.2 miCalmMostly Cloudy
8:00 AM79.0 °F78.0 °F95 %29.98 in9.0 miNNE (30°)1.2 mphMostly Cloudy
8:00 AM78.8 °F77.0 °F94 %29.98 in6.2 miVariable1.2 mphMostly Cloudy
9:00 AM82.4 °F75.2 °F79 %29.98 in6.2 miCalmMostly Cloudy
10:00 AM87.8 °F77.0 °F70 %6.2 miEast (100°)4.6 mphMostly Cloudy
11:00 AM88.0 °F78.0 °F66 %30.01 in9.0 miEast (100°)3.5 mphMostly Cloudy
11:00 AM87.8 °F78.8 °F75 %30.01 in6.2 miEast (100°)3.5 mphMostly Cloudy
12:00 PM87.8 °F77.0 °F70 %30.01 in6.2 miEast (100°)3.5 mphMostly Cloudy
1:00 PM87.8 °F77.0 °F70 %30.00 in6.2 miESE (110°)4.6 mphMostly Cloudy
2:00 PM89.0 °F78.0 °F64 %29.99 in9.0 miESE (120°)4.6 mphPartly Cloudy
2:00 PM89.6 °F78.8 °F70 %29.99 in6.2 miESE (120°)4.6 mphMostly Cloudy
3:00 PM87.8 °F77.0 °F70 %29.99 in6.2 miCalmMostly Cloudy
4:00 PM87.8 °F77.0 °F70 %29.97 in6.2 miNorth (10°)2.3 mphMostly Cloudy
5:00 PM87.8 °F77.0 °F70 %29.96 in6.2 miSSE (150°)3.5 mphMostly Cloudy
6:00 PM87.8 °F75.2 °F66 %29.96 in6.2 miSSE (150°)3.5 mphMostly Cloudy
7:00 PM86.0 °F75.2 °F70 %29.96 in6.2 miEast (90°)3.5 mphMostly Cloudy
8:00 PM84.2 °F77.0 °F79 %29.98 in6.2 miSSE (150°)3.5 mphMostly Cloudy
9:00 PM82.4 °F77.0 °F84 %30.01 in6.2 miSSE (150°)2.3 mphMostly Cloudy
10:00 PM82.4 °F77.0 °F84 %30.04 in6.2 miCalmScattered Clouds
11:00 PM83.0 °F79.0 °F83 %30.02 in8.0 miCalmScattered Clouds
11:00 PM82.4 °F78.8 °F89 %30.02 in6.2 miCalmScattered Clouds
Hourly data recorded from MYNN, located miles away from Nassau, The Bahamas







STORIES FROM OUR PARTNERS